Year,Month,Day,Hour,Minute,Value (Times are PST for temperature in C)
2017,07,04,00,00,13.10
2017,07,04,00,01,13.10
2017,07,04,00,02,13.00
2017,07,04,00,03,13.00
2017,07,04,00,04,13.00
2017,07,04,00,05,12.90
2017,07,04,00,06,12.90
2017,07,04,00,07,12.90
2017,07,04,00,08,12.80
2017,07,04,00,09,12.80
2017,07,04,00,10,12.80
2017,07,04,00,11,12.80
2017,07,04,00,12,12.80
2017,07,04,00,13,12.80
2017,07,04,00,14,12.80
2017,07,04,00,15,12.80
2017,07,04,00,16,12.80
2017,07,04,00,17,12.70
2017,07,04,00,18,12.70
2017,07,04,00,19,12.70
2017,07,04,00,20,12.70
2017,07,04,00,21,12.70
2017,07,04,00,22,12.70
2017,07,04,00,23,12.60
2017,07,04,00,24,12.60
2017,07,04,00,25,12.60
2017,07,04,00,26,12.60
2017,07,04,00,27,12.60
2017,07,04,00,28,12.60
2017,07,04,00,29,12.60
2017,07,04,00,30,12.60
2017,07,04,00,31,12.60
2017,07,04,00,32,12.60
2017,07,04,00,33,12.60
2017,07,04,00,34,12.60
2017,07,04,00,35,12.60
2017,07,04,00,36,12.60
2017,07,04,00,37,12.60
2017,07,04,00,38,12.60
2017,07,04,00,39,12.60
2017,07,04,00,40,12.60
2017,07,04,00,41,12.50
2017,07,04,00,42,12.50
2017,07,04,00,43,12.50
2017,07,04,00,44,12.50
2017,07,04,00,45,12.40
2017,07,04,00,46,12.40
2017,07,04,00,47,12.40
2017,07,04,00,48,12.40
2017,07,04,00,49,12.40
2017,07,04,00,50,12.40
2017,07,04,00,51,12.30
2017,07,04,00,52,12.30
2017,07,04,00,53,12.30
2017,07,04,00,54,12.30
2017,07,04,00,55,12.30
2017,07,04,00,56,12.30
2017,07,04,00,57,12.30
2017,07,04,00,58,12.30
2017,07,04,00,59,12.30
2017,07,04,01,00,12.30
2017,07,04,01,01,12.30
2017,07,04,01,02,12.30
2017,07,04,01,03,12.30
2017,07,04,01,04,12.30
2017,07,04,01,05,12.30
2017,07,04,01,06,12.30
2017,07,04,01,07,12.20
2017,07,04,01,08,12.20
2017,07,04,01,09,12.20
2017,07,04,01,10,12.20
2017,07,04,01,11,12.20
2017,07,04,01,12,12.20
2017,07,04,01,13,12.20
2017,07,04,01,14,12.20
2017,07,04,01,15,12.20
2017,07,04,01,16,12.20
2017,07,04,01,17,12.20
2017,07,04,01,18,12.20
2017,07,04,01,19,12.20
2017,07,04,01,20,12.20
2017,07,04,01,21,12.20
2017,07,04,01,22,12.10
2017,07,04,01,23,12.10
2017,07,04,01,24,12.10
2017,07,04,01,25,12.10
2017,07,04,01,26,12.00
2017,07,04,01,27,12.00
2017,07,04,01,28,11.90
2017,07,04,01,29,11.90
2017,07,04,01,30,11.90
2017,07,04,01,31,11.90
2017,07,04,01,32,11.90
2017,07,04,01,33,11.80
2017,07,04,01,34,11.80
2017,07,04,01,35,11.80
2017,07,04,01,36,11.80
2017,07,04,01,37,11.80
2017,07,04,01,38,11.80
2017,07,04,01,39,11.80
2017,07,04,01,40,11.80
2017,07,04,01,41,11.70
2017,07,04,01,42,11.70
2017,07,04,01,43,11.70
2017,07,04,01,44,11.70
2017,07,04,01,45,11.70
2017,07,04,01,46,11.70
2017,07,04,01,47,11.70
2017,07,04,01,48,11.70
2017,07,04,01,49,11.70
2017,07,04,01,50,11.70
2017,07,04,01,51,11.70
2017,07,04,01,52,11.70
2017,07,04,01,53,11.70
2017,07,04,01,54,11.70
2017,07,04,01,55,11.70
2017,07,04,01,56,11.70
2017,07,04,01,57,11.80
2017,07,04,01,58,11.80
2017,07,04,01,59,11.80
2017,07,04,02,00,11.80
2017,07,04,02,01,11.80
2017,07,04,02,02,11.80
2017,07,04,02,03,11.80
2017,07,04,02,04,11.80
2017,07,04,02,05,11.70
2017,07,04,02,06,11.70
2017,07,04,02,07,11.70
2017,07,04,02,08,11.70
2017,07,04,02,09,11.70
2017,07,04,02,10,11.70
2017,07,04,02,11,11.60
2017,07,04,02,12,11.60
2017,07,04,02,13,11.60
2017,07,04,02,14,11.60
2017,07,04,02,15,11.50
2017,07,04,02,16,11.50
2017,07,04,02,17,11.50
2017,07,04,02,18,11.50
2017,07,04,02,19,11.40
2017,07,04,02,20,11.40
2017,07,04,02,21,11.40
2017,07,04,02,22,11.40
2017,07,04,02,23,11.40
2017,07,04,02,24,11.40
2017,07,04,02,25,11.40
2017,07,04,02,26,11.40
2017,07,04,02,27,11.40
2017,07,04,02,28,11.40
2017,07,04,02,29,11.30
2017,07,04,02,30,11.30
2017,07,04,02,31,11.30
2017,07,04,02,32,11.30
2017,07,04,02,33,11.30
2017,07,04,02,34,11.30
2017,07,04,02,35,11.20
2017,07,04,02,36,11.20
2017,07,04,02,37,11.20
2017,07,04,02,38,11.20
2017,07,04,02,39,11.20
2017,07,04,02,40,11.10
2017,07,04,02,41,11.10
2017,07,04,02,42,11.10
2017,07,04,02,43,11.10
2017,07,04,02,44,11.00
2017,07,04,02,45,11.00
2017,07,04,02,46,11.00
2017,07,04,02,47,11.00
2017,07,04,02,48,11.00
2017,07,04,02,49,11.00
2017,07,04,02,50,11.00
2017,07,04,02,51,11.00
2017,07,04,02,52,11.00
2017,07,04,02,53,11.00
2017,07,04,02,54,11.00
2017,07,04,02,55,11.00
2017,07,04,02,56,11.10
2017,07,04,02,57,11.00
2017,07,04,02,58,11.00
2017,07,04,02,59,11.00
2017,07,04,03,00,11.00
2017,07,04,03,01,11.00
2017,07,04,03,02,11.00
2017,07,04,03,03,11.00
2017,07,04,03,04,11.00
2017,07,04,03,05,11.00
2017,07,04,03,06,11.00
2017,07,04,03,07,11.00
2017,07,04,03,08,11.00
2017,07,04,03,09,11.00
2017,07,04,03,10,11.00
2017,07,04,03,11,11.00
2017,07,04,03,12,10.90
2017,07,04,03,13,10.90
2017,07,04,03,14,10.90
2017,07,04,03,15,10.90
2017,07,04,03,16,10.90
2017,07,04,03,17,10.90
2017,07,04,03,18,10.90
2017,07,04,03,19,10.90
2017,07,04,03,20,10.90
2017,07,04,03,21,10.90
2017,07,04,03,22,10.90
2017,07,04,03,23,10.90
2017,07,04,03,24,10.80
2017,07,04,03,25,10.80
2017,07,04,03,26,10.80
2017,07,04,03,27,10.80
2017,07,04,03,28,10.80
2017,07,04,03,29,10.80
2017,07,04,03,30,10.80
2017,07,04,03,31,10.80
2017,07,04,03,32,10.80
2017,07,04,03,33,10.80
2017,07,04,03,34,10.80
2017,07,04,03,35,10.80
2017,07,04,03,36,10.80
2017,07,04,03,37,10.80
2017,07,04,03,38,10.80
2017,07,04,03,39,10.80
2017,07,04,03,40,10.80
2017,07,04,03,41,10.80
2017,07,04,03,42,10.80
2017,07,04,03,43,10.80
2017,07,04,03,44,10.80
2017,07,04,03,45,10.90
2017,07,04,03,46,10.90
2017,07,04,03,47,10.90
2017,07,04,03,48,10.90
2017,07,04,03,49,10.90
2017,07,04,03,50,10.90
2017,07,04,03,51,10.90
2017,07,04,03,52,10.90
2017,07,04,03,53,10.90
2017,07,04,03,54,10.90
2017,07,04,03,55,10.90
2017,07,04,03,56,10.90
2017,07,04,03,57,10.80
2017,07,04,03,58,10.80
2017,07,04,03,59,10.80
2017,07,04,04,00,10.80
2017,07,04,04,01,10.80
2017,07,04,04,02,10.80
2017,07,04,04,03,10.80
2017,07,04,04,04,10.70
2017,07,04,04,05,10.70
2017,07,04,04,06,10.70
2017,07,04,04,07,10.70
2017,07,04,04,08,10.70
2017,07,04,04,09,10.70
2017,07,04,04,10,10.70
2017,07,04,04,11,10.70
2017,07,04,04,12,10.70
2017,07,04,04,13,10.70
2017,07,04,04,14,10.70
2017,07,04,04,15,10.60
2017,07,04,04,16,10.60
2017,07,04,04,17,10.60
2017,07,04,04,18,10.60
2017,07,04,04,19,10.50
2017,07,04,04,20,10.50
2017,07,04,04,21,10.50
2017,07,04,04,22,10.50
2017,07,04,04,23,10.40
2017,07,04,04,24,10.40
2017,07,04,04,25,10.40
2017,07,04,04,26,10.40
2017,07,04,04,27,10.40
2017,07,04,04,28,10.40
2017,07,04,04,29,10.40
2017,07,04,04,30,10.40
2017,07,04,04,31,10.40
2017,07,04,04,32,10.40
2017,07,04,04,33,10.40
2017,07,04,04,34,10.40
2017,07,04,04,35,10.40
2017,07,04,04,36,10.40
2017,07,04,04,37,10.50
2017,07,04,04,38,10.50
2017,07,04,04,39,10.40
2017,07,04,04,40,10.40
2017,07,04,04,41,10.40
2017,07,04,04,42,10.40
2017,07,04,04,43,10.40
2017,07,04,04,44,10.40
2017,07,04,04,45,10.40
2017,07,04,04,46,10.40
2017,07,04,04,47,10.40
2017,07,04,04,48,10.40
2017,07,04,04,49,10.40
2017,07,04,04,50,10.40
2017,07,04,04,51,10.40
2017,07,04,04,52,10.40
2017,07,04,04,53,10.40
2017,07,04,04,54,10.40
2017,07,04,04,55,10.40
2017,07,04,04,56,10.40
2017,07,04,04,57,10.40
2017,07,04,04,58,10.40
2017,07,04,04,59,10.30
2017,07,04,05,00,10.30
2017,07,04,05,01,10.30
2017,07,04,05,02,10.30
2017,07,04,05,03,10.30
2017,07,04,05,04,10.30
2017,07,04,05,05,10.30
2017,07,04,05,06,10.30
2017,07,04,05,07,10.30
2017,07,04,05,08,10.30
2017,07,04,05,09,10.30
2017,07,04,05,10,10.30
2017,07,04,05,11,10.30
2017,07,04,05,12,10.30
2017,07,04,05,13,10.30
2017,07,04,05,14,10.20
2017,07,04,05,15,10.20
2017,07,04,05,16,10.20
2017,07,04,05,17,10.20
2017,07,04,05,18,10.20
2017,07,04,05,19,10.20
2017,07,04,05,20,10.20
2017,07,04,05,21,10.20
2017,07,04,05,22,10.20
2017,07,04,05,23,10.20
2017,07,04,05,24,10.20
2017,07,04,05,25,10.20
2017,07,04,05,26,10.20
2017,07,04,05,27,10.20
2017,07,04,05,28,10.20
2017,07,04,05,29,10.20
2017,07,04,05,30,10.20
2017,07,04,05,31,10.20
2017,07,04,05,32,10.20
2017,07,04,05,33,10.20
2017,07,04,05,34,10.20
2017,07,04,05,35,10.20
2017,07,04,05,36,10.20
2017,07,04,05,37,10.20
2017,07,04,05,38,10.20
2017,07,04,05,39,10.20
2017,07,04,05,40,10.20
2017,07,04,05,41,10.20
2017,07,04,05,42,10.20
2017,07,04,05,43,10.20
2017,07,04,05,44,10.20
2017,07,04,05,45,10.20
2017,07,04,05,46,10.20
2017,07,04,05,47,10.20
2017,07,04,05,48,10.20
2017,07,04,05,49,10.20
2017,07,04,05,50,10.20
2017,07,04,05,51,10.30
2017,07,04,05,52,10.30
2017,07,04,05,53,10.30
2017,07,04,05,54,10.30
2017,07,04,05,55,10.30
2017,07,04,05,56,10.30
2017,07,04,05,57,10.40
2017,07,04,05,58,10.40
2017,07,04,05,59,10.50
2017,07,04,06,00,10.50
2017,07,04,06,01,10.50
2017,07,04,06,02,10.60
2017,07,04,06,03,10.60
2017,07,04,06,04,10.60
2017,07,04,06,05,10.70
2017,07,04,06,06,10.70
2017,07,04,06,07,10.70
2017,07,04,06,08,10.70
2017,07,04,06,09,10.70
2017,07,04,06,10,10.80
2017,07,04,06,11,10.80
2017,07,04,06,12,10.80
2017,07,04,06,13,10.90
2017,07,04,06,14,10.90
2017,07,04,06,15,11.00
2017,07,04,06,16,11.00
2017,07,04,06,17,11.10
2017,07,04,06,18,11.20
2017,07,04,06,19,11.30
2017,07,04,06,20,11.40
2017,07,04,06,21,11.50
2017,07,04,06,22,11.60
2017,07,04,06,23,11.80
2017,07,04,06,24,11.80
2017,07,04,06,25,12.00
2017,07,04,06,26,12.10
2017,07,04,06,27,12.20
2017,07,04,06,28,12.20
2017,07,04,06,29,12.30
2017,07,04,06,30,12.30
2017,07,04,06,31,12.40
2017,07,04,06,32,12.50
2017,07,04,06,33,12.50
2017,07,04,06,34,12.60
2017,07,04,06,35,12.70
2017,07,04,06,36,12.80
2017,07,04,06,37,12.80
2017,07,04,06,38,12.90
2017,07,04,06,39,13.00
2017,07,04,06,40,13.10
2017,07,04,06,41,13.30
2017,07,04,06,42,13.40
2017,07,04,06,43,13.50
2017,07,04,06,44,13.60
2017,07,04,06,45,13.70
2017,07,04,06,46,13.70
2017,07,04,06,47,13.70
2017,07,04,06,48,13.70
2017,07,04,06,49,13.70
2017,07,04,06,50,13.70
2017,07,04,06,51,13.70
2017,07,04,06,52,13.70
2017,07,04,06,53,13.70
2017,07,04,06,54,13.70
2017,07,04,06,55,13.70
2017,07,04,06,56,13.80
2017,07,04,06,57,13.80
2017,07,04,06,58,13.90
2017,07,04,06,59,14.00
2017,07,04,07,00,14.10
2017,07,04,07,01,14.10
2017,07,04,07,02,14.20
2017,07,04,07,03,14.20
2017,07,04,07,04,14.30
2017,07,04,07,05,14.30
2017,07,04,07,06,14.30
2017,07,04,07,07,14.40
2017,07,04,07,08,14.50
2017,07,04,07,09,14.50
2017,07,04,07,10,14.60
2017,07,04,07,11,14.60
2017,07,04,07,12,14.60
2017,07,04,07,13,14.70
2017,07,04,07,14,14.70
2017,07,04,07,15,14.70
2017,07,04,07,16,14.70
2017,07,04,07,17,14.70
2017,07,04,07,18,14.70
2017,07,04,07,19,14.80
2017,07,04,07,20,14.80
2017,07,04,07,21,14.90
2017,07,04,07,22,14.90
2017,07,04,07,23,15.00
2017,07,04,07,24,15.10
2017,07,04,07,25,15.10
2017,07,04,07,26,15.20
2017,07,04,07,27,15.30
2017,07,04,07,28,15.40
2017,07,04,07,29,15.50
2017,07,04,07,30,15.60
2017,07,04,07,31,15.70
2017,07,04,07,32,15.80
2017,07,04,07,33,15.90
2017,07,04,07,34,16.00
2017,07,04,07,35,16.10
2017,07,04,07,36,16.20
2017,07,04,07,37,16.20
2017,07,04,07,38,16.20
2017,07,04,07,39,16.30
2017,07,04,07,40,16.30
2017,07,04,07,41,16.30
2017,07,04,07,42,16.30
2017,07,04,07,43,16.30
2017,07,04,07,44,16.30
2017,07,04,07,45,16.40
2017,07,04,07,46,16.50
2017,07,04,07,47,16.50
2017,07,04,07,48,16.60
2017,07,04,07,49,16.60
2017,07,04,07,50,16.60
2017,07,04,07,51,16.60
2017,07,04,07,52,16.60
2017,07,04,07,53,16.60
2017,07,04,07,54,16.60
2017,07,04,07,55,16.70
2017,07,04,07,56,16.70
2017,07,04,07,57,16.70
2017,07,04,07,58,16.80
2017,07,04,07,59,16.80
2017,07,04,08,00,17.00
2017,07,04,08,01,17.10
2017,07,04,08,02,17.20
2017,07,04,08,03,17.20
2017,07,04,08,04,17.20
2017,07,04,08,05,17.20
2017,07,04,08,06,17.20
2017,07,04,08,07,17.20
2017,07,04,08,08,17.20
2017,07,04,08,09,17.20
2017,07,04,08,10,17.20
2017,07,04,08,11,17.20
2017,07,04,08,12,17.20
2017,07,04,08,13,17.20
2017,07,04,08,14,17.20
2017,07,04,08,15,17.20
2017,07,04,08,16,17.20
2017,07,04,08,17,17.30
2017,07,04,08,18,17.30
2017,07,04,08,19,17.40
2017,07,04,08,20,17.40
2017,07,04,08,21,17.50
2017,07,04,08,22,17.60
2017,07,04,08,23,17.60
2017,07,04,08,24,17.70
2017,07,04,08,25,17.80
2017,07,04,08,26,17.80
2017,07,04,08,27,17.80
2017,07,04,08,28,17.90
2017,07,04,08,29,18.00
2017,07,04,08,30,18.00
2017,07,04,08,31,18.10
2017,07,04,08,32,18.10
2017,07,04,08,33,18.20
2017,07,04,08,34,18.30
2017,07,04,08,35,18.30
2017,07,04,08,36,18.40
2017,07,04,08,37,18.50
2017,07,04,08,38,18.50
2017,07,04,08,39,18.50
2017,07,04,08,40,18.40
2017,07,04,08,41,18.40
2017,07,04,08,42,18.30
2017,07,04,08,43,18.30
2017,07,04,08,44,18.20
2017,07,04,08,45,18.10
2017,07,04,08,46,18.10
2017,07,04,08,47,18.10
2017,07,04,08,48,18.20
2017,07,04,08,49,18.30
2017,07,04,08,50,18.40
2017,07,04,08,51,18.50
2017,07,04,08,52,18.60
2017,07,04,08,53,18.70
2017,07,04,08,54,18.80
2017,07,04,08,55,18.90
2017,07,04,08,56,19.00
2017,07,04,08,57,19.10
2017,07,04,08,58,19.20
2017,07,04,08,59,19.20
2017,07,04,09,00,19.10
2017,07,04,09,01,19.10
2017,07,04,09,02,19.10
2017,07,04,09,03,19.20
2017,07,04,09,04,19.20
2017,07,04,09,05,19.20
2017,07,04,09,06,19.20
2017,07,04,09,07,19.20
2017,07,04,09,08,19.30
2017,07,04,09,09,19.30
2017,07,04,09,10,19.30
2017,07,04,09,11,19.30
2017,07,04,09,12,19.30
2017,07,04,09,13,19.30
2017,07,04,09,14,19.40
2017,07,04,09,15,19.40
2017,07,04,09,16,19.40
2017,07,04,09,17,19.50
2017,07,04,09,18,19.60
2017,07,04,09,19,19.60
2017,07,04,09,20,19.60
2017,07,04,09,21,19.60
2017,07,04,09,22,19.60
2017,07,04,09,23,19.60
2017,07,04,09,24,19.50
2017,07,04,09,25,19.50
2017,07,04,09,26,19.40
2017,07,04,09,27,19.40
2017,07,04,09,28,19.40
2017,07,04,09,29,19.40
2017,07,04,09,30,19.30
2017,07,04,09,31,19.30
2017,07,04,09,32,19.30
2017,07,04,09,33,19.20
2017,07,04,09,34,19.20
2017,07,04,09,35,19.10
2017,07,04,09,36,19.00
2017,07,04,09,37,18.90
2017,07,04,09,38,18.90
2017,07,04,09,39,18.90
2017,07,04,09,40,19.00
2017,07,04,09,41,19.00
2017,07,04,09,42,19.10
2017,07,04,09,43,19.10
2017,07,04,09,44,19.10
2017,07,04,09,45,19.20
2017,07,04,09,46,19.20
2017,07,04,09,47,19.30
2017,07,04,09,48,19.40
2017,07,04,09,49,19.40
2017,07,04,09,50,19.50
2017,07,04,09,51,19.60
2017,07,04,09,52,19.60
2017,07,04,09,53,19.60
2017,07,04,09,54,19.60
2017,07,04,09,55,19.60
2017,07,04,09,56,19.60
2017,07,04,09,57,19.60
2017,07,04,09,58,19.60
2017,07,04,09,59,19.70
2017,07,04,10,00,19.60
2017,07,04,10,01,19.60
2017,07,04,10,02,19.50
2017,07,04,10,03,19.50
2017,07,04,10,04,19.40
2017,07,04,10,05,19.30
2017,07,04,10,06,19.30
2017,07,04,10,07,19.30
2017,07,04,10,08,19.20
2017,07,04,10,09,19.20
2017,07,04,10,10,19.10
2017,07,04,10,11,19.10
2017,07,04,10,12,19.10
2017,07,04,10,13,19.20
2017,07,04,10,14,19.20
2017,07,04,10,15,19.20
2017,07,04,10,16,19.20
2017,07,04,10,17,19.20
2017,07,04,10,18,19.30
2017,07,04,10,19,19.40
2017,07,04,10,20,19.40
2017,07,04,10,21,19.50
2017,07,04,10,22,19.50
2017,07,04,10,23,19.40
2017,07,04,10,24,19.40
2017,07,04,10,25,19.40
2017,07,04,10,26,19.30
2017,07,04,10,27,19.20
2017,07,04,10,28,19.20
2017,07,04,10,29,19.20
2017,07,04,10,30,19.20
2017,07,04,10,31,19.30
2017,07,04,10,32,19.40
2017,07,04,10,33,19.50
2017,07,04,10,34,19.60
2017,07,04,10,35,19.70
2017,07,04,10,36,19.70
2017,07,04,10,37,19.70
2017,07,04,10,38,19.70
2017,07,04,10,39,19.70
2017,07,04,10,40,19.70
2017,07,04,10,41,19.80
2017,07,04,10,42,19.80
2017,07,04,10,43,19.90
2017,07,04,10,44,20.00
2017,07,04,10,45,20.10
2017,07,04,10,46,20.20
2017,07,04,10,47,20.30
2017,07,04,10,48,20.30
2017,07,04,10,49,20.40
2017,07,04,10,50,20.50
2017,07,04,10,51,20.50
2017,07,04,10,52,20.50
2017,07,04,10,53,20.40
2017,07,04,10,54,20.40
2017,07,04,10,55,20.30
2017,07,04,10,56,20.30
2017,07,04,10,57,20.30
2017,07,04,10,58,20.30
2017,07,04,10,59,20.30
2017,07,04,11,00,20.30
2017,07,04,11,01,20.30
2017,07,04,11,02,20.20
2017,07,04,11,03,20.20
2017,07,04,11,04,20.20
2017,07,04,11,05,20.20
2017,07,04,11,06,20.20
2017,07,04,11,07,20.10
2017,07,04,11,08,20.10
2017,07,04,11,09,20.00
2017,07,04,11,10,20.00
2017,07,04,11,11,20.00
2017,07,04,11,12,20.00
2017,07,04,11,13,20.00
2017,07,04,11,14,20.10
2017,07,04,11,15,20.10
2017,07,04,11,16,20.20
2017,07,04,11,17,20.20
2017,07,04,11,18,20.20
2017,07,04,11,19,20.20
2017,07,04,11,20,20.20
2017,07,04,11,21,20.20
2017,07,04,11,22,20.20
2017,07,04,11,23,20.20
2017,07,04,11,24,20.10
2017,07,04,11,25,20.00
2017,07,04,11,26,20.00
2017,07,04,11,27,20.00
2017,07,04,11,28,20.10
2017,07,04,11,29,20.20
2017,07,04,11,30,20.30
2017,07,04,11,31,20.50
2017,07,04,11,32,20.60
2017,07,04,11,33,20.70
2017,07,04,11,34,20.80
2017,07,04,11,35,20.80
2017,07,04,11,36,20.90
2017,07,04,11,37,21.00
2017,07,04,11,38,21.00
2017,07,04,11,39,21.10
2017,07,04,11,40,21.00
2017,07,04,11,41,21.00
2017,07,04,11,42,21.00
2017,07,04,11,43,21.00
2017,07,04,11,44,20.90
2017,07,04,11,45,20.80
2017,07,04,11,46,20.80
2017,07,04,11,47,20.80
2017,07,04,11,48,20.80
2017,07,04,11,49,20.80
2017,07,04,11,50,20.70
2017,07,04,11,51,20.70
2017,07,04,11,52,20.70
2017,07,04,11,53,20.60
2017,07,04,11,54,20.60
2017,07,04,11,55,20.60
2017,07,04,11,56,20.40
2017,07,04,11,57,20.30
2017,07,04,11,58,20.20
2017,07,04,11,59,20.10
2017,07,04,12,00,20.10
2017,07,04,12,01,20.20
2017,07,04,12,02,20.20
2017,07,04,12,03,20.30
2017,07,04,12,04,20.50
2017,07,04,12,05,20.60
2017,07,04,12,06,20.80
2017,07,04,12,07,20.80
2017,07,04,12,08,20.90
2017,07,04,12,09,21.00
2017,07,04,12,10,21.10
2017,07,04,12,11,21.10
2017,07,04,12,12,21.10
2017,07,04,12,13,21.10
2017,07,04,12,14,21.20
2017,07,04,12,15,21.20
2017,07,04,12,16,21.30
2017,07,04,12,17,21.30
2017,07,04,12,18,21.20
2017,07,04,12,19,21.20
2017,07,04,12,20,21.10
2017,07,04,12,21,21.00
2017,07,04,12,22,21.00
2017,07,04,12,23,21.00
2017,07,04,12,24,21.00
2017,07,04,12,25,21.00
2017,07,04,12,26,21.10
2017,07,04,12,27,21.10
2017,07,04,12,28,21.10
2017,07,04,12,29,21.00
2017,07,04,12,30,21.00
2017,07,04,12,31,21.10
2017,07,04,12,32,21.20
2017,07,04,12,33,21.20
2017,07,04,12,34,21.30
2017,07,04,12,35,21.20
2017,07,04,12,36,21.20
2017,07,04,12,37,21.10
2017,07,04,12,38,21.10
2017,07,04,12,39,21.10
2017,07,04,12,40,21.20
2017,07,04,12,41,21.30
2017,07,04,12,42,21.40
2017,07,04,12,43,21.40
2017,07,04,12,44,21.40
2017,07,04,12,45,21.40
2017,07,04,12,46,21.40
2017,07,04,12,47,21.50
2017,07,04,12,48,21.60
2017,07,04,12,49,21.60
2017,07,04,12,50,21.70
2017,07,04,12,51,21.70
2017,07,04,12,52,21.80
2017,07,04,12,53,22.00
2017,07,04,12,54,22.10
2017,07,04,12,55,22.20
2017,07,04,12,56,22.10
2017,07,04,12,57,22.00
2017,07,04,12,58,21.80
2017,07,04,12,59,21.70
2017,07,04,13,00,21.70
2017,07,04,13,01,21.70
2017,07,04,13,02,21.60
2017,07,04,13,03,21.50
2017,07,04,13,04,21.40
2017,07,04,13,05,21.30
2017,07,04,13,06,21.30
2017,07,04,13,07,21.20
2017,07,04,13,08,21.20
2017,07,04,13,09,21.30
2017,07,04,13,10,21.40
2017,07,04,13,11,21.50
2017,07,04,13,12,21.60
2017,07,04,13,13,21.60
2017,07,04,13,14,21.40
2017,07,04,13,15,21.30
2017,07,04,13,16,21.20
2017,07,04,13,17,21.20
2017,07,04,13,18,21.30
2017,07,04,13,19,21.40
2017,07,04,13,20,21.50
2017,07,04,13,21,21.50
2017,07,04,13,22,21.50
2017,07,04,13,23,21.40
2017,07,04,13,24,21.30
2017,07,04,13,25,21.30
2017,07,04,13,26,21.30
2017,07,04,13,27,21.20
2017,07,04,13,28,21.00
2017,07,04,13,29,21.00
2017,07,04,13,30,21.00
2017,07,04,13,31,21.00
2017,07,04,13,32,21.00
2017,07,04,13,33,20.90
2017,07,04,13,34,20.90
2017,07,04,13,35,20.90
2017,07,04,13,36,20.90
2017,07,04,13,37,20.80
2017,07,04,13,38,20.80
2017,07,04,13,39,20.70
2017,07,04,13,40,20.70
2017,07,04,13,41,20.70
2017,07,04,13,42,20.80
2017,07,04,13,43,20.90
2017,07,04,13,44,21.00
2017,07,04,13,45,21.10
2017,07,04,13,46,21.30
2017,07,04,13,47,21.40
2017,07,04,13,48,21.40
2017,07,04,13,49,21.40
2017,07,04,13,50,21.40
2017,07,04,13,51,21.40
2017,07,04,13,52,21.30
2017,07,04,13,53,21.30
2017,07,04,13,54,21.20
2017,07,04,13,55,21.20
2017,07,04,13,56,21.20
2017,07,04,13,57,21.20
2017,07,04,13,58,21.20
2017,07,04,13,59,21.20
2017,07,04,14,00,21.10
2017,07,04,14,01,21.10
2017,07,04,14,02,21.00
2017,07,04,14,03,21.00
2017,07,04,14,04,21.10
2017,07,04,14,05,21.20
2017,07,04,14,06,21.30
2017,07,04,14,07,21.30
2017,07,04,14,08,21.40
2017,07,04,14,09,21.40
2017,07,04,14,10,21.50
2017,07,04,14,11,21.40
2017,07,04,14,12,21.50
2017,07,04,14,13,21.50
2017,07,04,14,14,21.60
2017,07,04,14,15,21.70
2017,07,04,14,16,21.80
2017,07,04,14,17,22.00
2017,07,04,14,18,22.10
2017,07,04,14,19,22.20
2017,07,04,14,20,22.20
2017,07,04,14,21,22.20
2017,07,04,14,22,22.10
2017,07,04,14,23,22.10
2017,07,04,14,24,22.20
2017,07,04,14,25,22.20
2017,07,04,14,26,22.20
2017,07,04,14,27,22.20
2017,07,04,14,28,22.20
2017,07,04,14,29,22.20
2017,07,04,14,30,22.20
2017,07,04,14,31,22.20
2017,07,04,14,32,22.10
2017,07,04,14,33,22.00
2017,07,04,14,34,21.90
2017,07,04,14,35,22.00
2017,07,04,14,36,22.10
2017,07,04,14,37,22.20
2017,07,04,14,38,22.20
2017,07,04,14,39,22.30
2017,07,04,14,40,22.40
2017,07,04,14,41,22.40
2017,07,04,14,42,22.40
2017,07,04,14,43,22.30
2017,07,04,14,44,22.30
2017,07,04,14,45,22.30
2017,07,04,14,46,22.20
2017,07,04,14,47,22.10
2017,07,04,14,48,22.10
2017,07,04,14,49,22.10
2017,07,04,14,50,22.20
2017,07,04,14,51,22.10
2017,07,04,14,52,22.10
2017,07,04,14,53,22.00
2017,07,04,14,54,21.90
2017,07,04,14,55,21.80
2017,07,04,14,56,21.70
2017,07,04,14,57,21.70
2017,07,04,14,58,21.70
2017,07,04,14,59,21.70
2017,07,04,15,00,21.70
2017,07,04,15,01,21.80
2017,07,04,15,02,21.90
2017,07,04,15,03,21.90
2017,07,04,15,04,21.90
2017,07,04,15,05,21.80
2017,07,04,15,06,21.80
2017,07,04,15,07,21.70
2017,07,04,15,08,21.60
2017,07,04,15,09,21.50
2017,07,04,15,10,21.50
2017,07,04,15,11,21.40
2017,07,04,15,12,21.30
2017,07,04,15,13,21.30
2017,07,04,15,14,21.30
2017,07,04,15,15,21.20
2017,07,04,15,16,21.20
2017,07,04,15,17,21.20
2017,07,04,15,18,21.30
2017,07,04,15,19,21.30
2017,07,04,15,20,21.40
2017,07,04,15,21,21.40
2017,07,04,15,22,21.50
2017,07,04,15,23,21.50
2017,07,04,15,24,21.60
2017,07,04,15,25,21.60
2017,07,04,15,26,21.70
2017,07,04,15,27,21.80
2017,07,04,15,28,21.90
2017,07,04,15,29,22.00
2017,07,04,15,30,22.00
2017,07,04,15,31,22.10
2017,07,04,15,32,22.10
2017,07,04,15,33,22.30
2017,07,04,15,34,22.40
2017,07,04,15,35,22.50
2017,07,04,15,36,22.60
2017,07,04,15,37,22.70
2017,07,04,15,38,22.80
2017,07,04,15,39,22.90
2017,07,04,15,40,23.00
2017,07,04,15,41,23.10
2017,07,04,15,42,23.00
2017,07,04,15,43,23.00
2017,07,04,15,44,23.00
2017,07,04,15,45,23.00
2017,07,04,15,46,23.00
2017,07,04,15,47,23.00
2017,07,04,15,48,22.90
2017,07,04,15,49,22.90
2017,07,04,15,50,22.80
2017,07,04,15,51,22.80
2017,07,04,15,52,22.70
2017,07,04,15,53,22.60
2017,07,04,15,54,22.60
2017,07,04,15,55,22.50
2017,07,04,15,56,22.50
2017,07,04,15,57,22.40
2017,07,04,15,58,22.40
2017,07,04,15,59,22.40
2017,07,04,16,00,22.50
2017,07,04,16,01,22.50
2017,07,04,16,02,22.50
2017,07,04,16,03,22.40
2017,07,04,16,04,22.50
2017,07,04,16,05,22.70
2017,07,04,16,06,22.80
2017,07,04,16,07,22.90
2017,07,04,16,08,22.90
2017,07,04,16,09,22.90
2017,07,04,16,10,22.90
2017,07,04,16,11,22.90
2017,07,04,16,12,22.90
2017,07,04,16,13,22.90
2017,07,04,16,14,22.90
2017,07,04,16,15,22.90
2017,07,04,16,16,22.90
2017,07,04,16,17,23.00
2017,07,04,16,18,23.00
2017,07,04,16,19,23.00
2017,07,04,16,20,23.10
2017,07,04,16,21,23.20
2017,07,04,16,22,23.20
2017,07,04,16,23,23.20
2017,07,04,16,24,23.20
2017,07,04,16,25,23.20
2017,07,04,16,26,23.20
2017,07,04,16,27,23.20
2017,07,04,16,28,23.30
2017,07,04,16,29,23.40
2017,07,04,16,30,23.50
2017,07,04,16,31,23.50
2017,07,04,16,32,23.60
2017,07,04,16,33,23.80
2017,07,04,16,34,23.90
2017,07,04,16,35,24.00
2017,07,04,16,36,24.10
2017,07,04,16,37,24.10
2017,07,04,16,38,24.00
2017,07,04,16,39,24.00
2017,07,04,16,40,23.90
2017,07,04,16,41,23.90
2017,07,04,16,42,23.90
2017,07,04,16,43,23.80
2017,07,04,16,44,23.80
2017,07,04,16,45,23.80
2017,07,04,16,46,23.80
2017,07,04,16,47,23.80
2017,07,04,16,48,23.80
2017,07,04,16,49,23.80
2017,07,04,16,50,23.80
2017,07,04,16,51,23.70
2017,07,04,16,52,23.60
2017,07,04,16,53,23.50
2017,07,04,16,54,23.50
2017,07,04,16,55,23.40
2017,07,04,16,56,23.40
2017,07,04,16,57,23.30
2017,07,04,16,58,23.30
2017,07,04,16,59,23.30
2017,07,04,17,00,23.30
2017,07,04,17,01,23.30
2017,07,04,17,02,23.30
2017,07,04,17,03,23.40
2017,07,04,17,04,23.50
2017,07,04,17,05,23.50
2017,07,04,17,06,23.60
2017,07,04,17,07,23.50
2017,07,04,17,08,23.50
2017,07,04,17,09,23.50
2017,07,04,17,10,23.50
2017,07,04,17,11,23.50
2017,07,04,17,12,23.50
2017,07,04,17,13,23.50
2017,07,04,17,14,23.60
2017,07,04,17,15,23.60
2017,07,04,17,16,23.60
2017,07,04,17,17,23.70
2017,07,04,17,18,23.70
2017,07,04,17,19,23.70